Weather in Martynovo

Russia / Yaroslavl Oblast     57°40′42″N   37°59′37″E
temp.,
°C
wind,
m/s
gust,
m/s
humid.,
%
clouds,
%
prec.,
mm/h
press.,
hPa
HPBL,
m
25 february, thu
thu2500:00−12ssw51095100 0.9 1023391
03:00−11s51195100 3.4 1019368
06:00−8ssw61194100 2.6 1012415
09:00+1wsw41199100 2.9 1010418
12:00+2wnw511100100 0.1 1009385
15:00+2wnw512100100 0.1 1010451
18:00+1wnw41098100 0.0 1011400
21:00+1w3896100 0.0 1011335
26 february, fri
fri2600:00+1sw2299100 0.1 101082
03:00+1ssw35100100 1.4 1008128
06:00+2sw49100100 1.6 1005219
09:00+2wsw514100100 3.8 1002421
12:00+2wsw61599100 2.2 999519
15:00+2w71699100 2.9 997778
18:00+1w81597100 0.3 996845
21:00+1wnw81496100 0.8 996970
27 february, sat
sat2700:00+1wnw81594100 0.3 997941
03:00−6n61294100 1.5 1000605
06:00−10n61189100 0.5 1001680
09:00−12n51089100 0.5 1005501
12:00−11n488897 0.0 1007491
15:00−10n488886 0.0 1009468
18:00−11n399373 0.0 1011305
21:00−11nnw399673 0.0 1013265
28 february, sun
sun2800:00−11nnw269589 0.0 1015227
03:00−12nnw239691 0.0 101663
06:00−10nw379690 0.1 1016226
09:00−7nnw399591 0.2 1017445
12:00−5nnw4692100 0.1 1017595
15:00−3nnw4688100 0.2 1019621
18:00−6nnw229695 0.0 101928
21:00−5nnw259596 0.1 1021220
1 march, mon
mon100:00−5nw1295100 0.1 102258
03:00−5wsw1296100 0.2 102235
06:00−5w2494100 0.1 102397
09:00−7wsw249487 0.1 1023119
12:00−3sw479414 0.0 1023314
15:00−1wsw489553 0.1 1021424
18:000wsw51095100 0.1 1019558
21:000w61197100 0.1 1017545